This demonstration page uses our WeatherBlox Daily Observations layout. Learn more.

Left ArrowRight Arrow

Hourly Observations for March 16, 2022

Temp ( °F °C ) Dew Point ( °F °C ) Humidity (%) Winds ( mph kmh ) Pressure ( in mb ) Visibility ( mi km ) Precip ( " mm )
12:53 am 00:53 Clear 51 10.6 8 -13.3 17 17 ESE 7 11 30.02 1017 10 16 0.00 0.00
1:53 am 01:53 Clear 50 10 8 -13.3 18 18 SE 8 13 29.99 1016 10 16 0.00 0.00
2:53 am 02:53 Clear 50 10 9 -12.8 19 19 SE 15 24 29.98 1015 10 16 0.00 0.00
3:53 am 03:53 Clear 46 7.8 9 -12.8 22 22 SSE 9 15 29.95 1014 10 16 0.00 0.00
4:53 am 04:53 Clear 40 4.4 7 -13.9 25 25 SE 9 15 29.93 1014 10 16 0.00 0.00
5:53 am 05:53 Clear 42 5.6 8 -13.3 24 24 ESE 5 7 29.92 1013 10 16 0.00 0.00
6:53 am 06:53 Clear 42 5.6 8 -13.3 24 24 SE 6 9 29.92 1013 10 16 0.00 0.00
7:53 am 07:53 Clear 42 5.6 9 -12.8 25 25 ESE 6 9 29.93 1014 10 16 0.00 0.00
8:53 am 08:53 Sunny 45 7.2 10 -12.2 24 24 ESE 9 15 29.94 1014 9 14 0.00 0.00
9:53 am 09:53 Sunny 54 12.2 12 -11.1 19 19 SSE 7 11 29.94 1014 10 16 0.00 0.00
10:53 am 10:53 Sunny 62 16.7 12 -11.1 14 14 SSE 9 15 29.91 1013 10 16 0.00 0.00
11:53 am 11:53 Sunny 68 20 11 -11.7 11 11 SE 9 15 29.88 1012 10 16 0.00 0.00
12:53 pm 12:53 Sunny 74 23.3 9 -12.8 8 8 S 7 11 29.84 1011 10 16 0.00 0.00
1:53 pm 13:53 Sunny 78 25.6 7 -13.9 6 6 VRB 5 7 29.80 1009 10 16 0.00 0.00
2:53 pm 14:53 Sunny 80 26.7 6 -14.4 6 6 SW 5 7 29.75 1008 10 16 0.00 0.00
3:53 pm 15:53 Sunny 84 28.9 3 -16.1 4 4 W 10 17 29.70 1006 10 16 0.00 0.00
4:53 pm 16:53 Sunny 84 28.9 2 -16.7 4 4 WNW 6 9 29.67 1005 10 16 0.00 0.00
5:53 pm 17:53 Sunny 85 29.4 2 -16.7 4 4 S 8 13 29.63 1003 10 16 0.00 0.00
6:53 pm 18:53 Sunny 83 28.3 2 -16.7 4 4 SW 9 15 29.62 1003 10 16 0.00 0.00
7:53 pm 19:53 Sunny 77 25 2 -16.7 5 5 S 8 13 29.62 1003 10 16 0.00 0.00
8:53 pm 20:53 Clear 72 22.2 9 -12.8 8 8 SE 10 17 29.64 1004 10 16 0.00 0.00
9:53 pm 21:53 Clear 70 21.1 10 -12.2 10 10 ESE 13 20 29.62 1003 10 16 0.00 0.00
10:53 pm 22:53 Clear 68 20 10 -12.2 10 10 SE 16 26 29.60 1003 10 16 0.00 0.00
11:53 pm 23:53 Clear 64 17.8 10 -12.2 12 12 SE 14 22 29.60 1002 10 16 0.00 0.00

Powered by AerisWeather